Year,Month,Day,Hour,Minute,Value (Times are PST for temperature in C)
2018,05,21,07,40,11.60
2018,05,21,07,41,11.70
2018,05,21,07,42,11.70
2018,05,21,07,43,11.70
2018,05,21,07,44,11.70
2018,05,21,07,45,11.70
2018,05,21,07,46,11.70
2018,05,21,07,47,11.70
2018,05,21,07,48,11.70
2018,05,21,07,49,11.70
2018,05,21,07,50,11.70
2018,05,21,07,51,11.80
2018,05,21,07,52,11.80
2018,05,21,07,53,11.80
2018,05,21,07,54,11.80
2018,05,21,07,55,11.80
2018,05,21,07,56,11.80
2018,05,21,07,57,11.80
2018,05,21,07,58,11.80
2018,05,21,07,59,11.80
2018,05,21,08,00,11.80
2018,05,21,08,01,11.80
2018,05,21,08,02,11.90
2018,05,21,08,03,11.90
2018,05,21,08,04,11.90
2018,05,21,08,05,11.90
2018,05,21,08,06,11.90
2018,05,21,08,07,11.90
2018,05,21,08,08,11.90
2018,05,21,08,09,11.90
2018,05,21,08,10,11.90
2018,05,21,08,11,11.90
2018,05,21,08,12,11.90
2018,05,21,08,13,12.00
2018,05,21,08,14,12.00
2018,05,21,08,15,12.00
2018,05,21,08,16,12.10
2018,05,21,08,17,12.10
2018,05,21,08,18,12.10
2018,05,21,08,19,12.10
2018,05,21,08,20,12.20
2018,05,21,08,21,12.20
2018,05,21,08,22,12.20
2018,05,21,08,23,12.20
2018,05,21,08,24,12.20
2018,05,21,08,25,12.20
2018,05,21,08,26,12.20
2018,05,21,08,27,12.10
2018,05,21,08,28,12.10
2018,05,21,08,29,12.10
2018,05,21,08,30,12.10
2018,05,21,08,31,12.10
2018,05,21,08,32,12.00
2018,05,21,08,33,12.00
2018,05,21,08,34,12.00
2018,05,21,08,35,12.00
2018,05,21,08,36,12.00
2018,05,21,08,37,11.90
2018,05,21,08,38,11.90
2018,05,21,08,39,11.90
2018,05,21,08,40,11.90
2018,05,21,08,41,11.90
2018,05,21,08,42,11.90
2018,05,21,08,43,11.90
2018,05,21,08,44,11.90
2018,05,21,08,45,11.90
2018,05,21,08,46,11.90
2018,05,21,08,47,11.90
2018,05,21,08,48,11.90
2018,05,21,08,49,11.90
2018,05,21,08,50,11.90
2018,05,21,08,51,12.00
2018,05,21,08,52,12.00
2018,05,21,08,53,12.00
2018,05,21,08,54,12.00
2018,05,21,08,55,12.10
2018,05,21,08,56,12.10
2018,05,21,08,57,12.10
2018,05,21,08,58,12.10
2018,05,21,08,59,12.10
2018,05,21,09,00,12.10
2018,05,21,09,01,12.10
2018,05,21,09,02,12.10
2018,05,21,09,03,12.20
2018,05,21,09,04,12.20
2018,05,21,09,05,12.20
2018,05,21,09,06,12.20
2018,05,21,09,07,12.20
2018,05,21,09,08,12.20
2018,05,21,09,09,12.20
2018,05,21,09,10,12.20
2018,05,21,09,11,12.20
2018,05,21,09,12,12.20
2018,05,21,09,13,12.20
2018,05,21,09,14,12.20
2018,05,21,09,15,12.20
2018,05,21,09,16,12.20
2018,05,21,09,17,12.20
2018,05,21,09,18,12.20
2018,05,21,09,19,12.20
2018,05,21,09,20,12.10
2018,05,21,09,21,12.10
2018,05,21,09,22,12.10
2018,05,21,09,23,12.10
2018,05,21,09,24,12.10
2018,05,21,09,25,12.10
2018,05,21,09,26,12.10
2018,05,21,09,27,12.10
2018,05,21,09,28,12.10
2018,05,21,09,29,12.10
2018,05,21,09,30,12.10
2018,05,21,09,31,12.10
2018,05,21,09,32,12.10
2018,05,21,09,33,12.10
2018,05,21,09,34,12.20
2018,05,21,09,35,12.20
2018,05,21,09,36,12.20
2018,05,21,09,37,12.20
2018,05,21,09,38,12.20
2018,05,21,09,39,12.20
2018,05,21,09,40,12.20
2018,05,21,09,41,12.30
2018,05,21,09,42,12.30
2018,05,21,09,43,12.30
2018,05,21,09,44,12.30
2018,05,21,09,45,12.30
2018,05,21,09,46,12.30
2018,05,21,09,47,12.30
2018,05,21,09,48,12.40
2018,05,21,09,49,12.40
2018,05,21,09,50,12.40
2018,05,21,09,51,12.40
2018,05,21,09,52,12.40
2018,05,21,09,53,12.50
2018,05,21,09,54,12.50
2018,05,21,09,55,12.60
2018,05,21,09,56,12.60
2018,05,21,09,57,12.60
2018,05,21,09,58,12.60
2018,05,21,09,59,12.70
2018,05,21,10,00,12.70
2018,05,21,10,01,12.70
2018,05,21,10,02,12.70
2018,05,21,10,03,12.70
2018,05,21,10,04,12.80
2018,05,21,10,05,12.80
2018,05,21,10,06,12.80
2018,05,21,10,07,12.90
2018,05,21,10,08,12.90
2018,05,21,10,09,12.90
2018,05,21,10,10,13.00
2018,05,21,10,11,13.00
2018,05,21,10,12,13.00
2018,05,21,10,13,13.00
2018,05,21,10,14,13.10
2018,05,21,10,15,13.10
2018,05,21,10,16,13.10
2018,05,21,10,17,13.10
2018,05,21,10,18,13.10
2018,05,21,10,19,13.20
2018,05,21,10,20,13.20
2018,05,21,10,21,13.20
2018,05,21,10,22,13.20
2018,05,21,10,23,13.30
2018,05,21,10,24,13.30
2018,05,21,10,25,13.30
2018,05,21,10,26,13.30
2018,05,21,10,27,13.30
2018,05,21,10,28,13.30
2018,05,21,10,29,13.30
2018,05,21,10,30,13.30
2018,05,21,10,31,13.30
2018,05,21,10,32,13.40
2018,05,21,10,33,13.40
2018,05,21,10,34,13.40
2018,05,21,10,35,13.50
2018,05,21,10,36,13.50
2018,05,21,10,37,13.50
2018,05,21,10,38,13.50
2018,05,21,10,39,13.60
2018,05,21,10,40,13.60
2018,05,21,10,41,13.70
2018,05,21,10,42,13.70
2018,05,21,10,43,13.70
2018,05,21,10,44,13.80
2018,05,21,10,45,13.80
2018,05,21,10,46,13.80
2018,05,21,10,47,13.90
2018,05,21,10,48,13.90
2018,05,21,10,49,13.90
2018,05,21,10,50,13.90
2018,05,21,10,51,14.00
2018,05,21,10,52,14.00
2018,05,21,10,53,14.10
2018,05,21,10,54,14.10
2018,05,21,10,55,14.20
2018,05,21,10,56,14.20
2018,05,21,10,57,14.20
2018,05,21,10,58,14.20
2018,05,21,10,59,14.20
2018,05,21,11,00,14.20
2018,05,21,11,01,14.30
2018,05,21,11,02,14.30
2018,05,21,11,03,14.30
2018,05,21,11,04,14.30
2018,05,21,11,05,14.30
2018,05,21,11,06,14.30
2018,05,21,11,07,14.20
2018,05,21,11,08,14.20
2018,05,21,11,09,14.10
2018,05,21,11,10,14.10
2018,05,21,11,11,14.20
2018,05,21,11,12,14.20
2018,05,21,11,13,14.20
2018,05,21,11,14,14.20
2018,05,21,11,15,14.10
2018,05,21,11,16,14.10
2018,05,21,11,17,14.00
2018,05,21,11,18,14.00
2018,05,21,11,19,13.90
2018,05,21,11,20,14.00
2018,05,21,11,21,13.90
2018,05,21,11,22,14.00
2018,05,21,11,23,14.00
2018,05,21,11,24,14.10
2018,05,21,11,25,14.10
2018,05,21,11,26,14.10
2018,05,21,11,27,14.10
2018,05,21,11,28,14.10
2018,05,21,11,29,14.10
2018,05,21,11,30,14.10
2018,05,21,11,31,14.10
2018,05,21,11,32,14.10
2018,05,21,11,33,14.20
2018,05,21,11,34,14.20
2018,05,21,11,35,14.20
2018,05,21,11,36,14.30
2018,05,21,11,37,14.30
2018,05,21,11,38,14.30
2018,05,21,11,39,14.30
2018,05,21,11,40,14.30
2018,05,21,11,41,14.30
2018,05,21,11,42,14.40
2018,05,21,11,43,14.50
2018,05,21,11,44,14.50
2018,05,21,11,45,14.60
2018,05,21,11,46,14.60
2018,05,21,11,47,14.70
2018,05,21,11,48,14.70
2018,05,21,11,49,14.70
2018,05,21,11,50,14.70
2018,05,21,11,51,14.70
2018,05,21,11,52,14.70
2018,05,21,11,53,14.70
2018,05,21,11,54,14.70
2018,05,21,11,55,14.70
2018,05,21,11,56,14.70
2018,05,21,11,57,14.70
2018,05,21,11,58,14.70
2018,05,21,11,59,14.80
2018,05,21,12,00,14.80
2018,05,21,12,01,14.90
2018,05,21,12,02,14.80
2018,05,21,12,03,14.80
2018,05,21,12,04,14.80
2018,05,21,12,05,14.80
2018,05,21,12,06,14.80
2018,05,21,12,07,14.80
2018,05,21,12,08,14.80
2018,05,21,12,09,14.90
2018,05,21,12,10,14.90
2018,05,21,12,11,15.00
2018,05,21,12,12,15.10
2018,05,21,12,13,15.10
2018,05,21,12,14,15.20
2018,05,21,12,15,15.20
2018,05,21,12,16,15.20
2018,05,21,12,17,15.20
2018,05,21,12,18,15.20
2018,05,21,12,19,15.20
2018,05,21,12,20,15.20
2018,05,21,12,21,15.20
2018,05,21,12,22,15.20
2018,05,21,12,23,15.20
2018,05,21,12,24,15.20
2018,05,21,12,25,15.20
2018,05,21,12,26,15.20
2018,05,21,12,27,15.10
2018,05,21,12,28,15.10
2018,05,21,12,29,15.10
2018,05,21,12,30,15.10
2018,05,21,12,31,15.10
2018,05,21,12,32,15.20
2018,05,21,12,33,15.20
2018,05,21,12,34,15.20
2018,05,21,12,35,15.20
2018,05,21,12,36,15.20
2018,05,21,12,37,15.20
2018,05,21,12,38,15.20
2018,05,21,12,39,15.20
2018,05,21,12,40,15.20
2018,05,21,12,41,15.30
2018,05,21,12,42,15.30
2018,05,21,12,43,15.30
2018,05,21,12,44,15.20
2018,05,21,12,45,15.20
2018,05,21,12,46,15.10
2018,05,21,12,47,15.10
2018,05,21,12,48,15.20
2018,05,21,12,49,15.20
2018,05,21,12,50,15.20
2018,05,21,12,51,15.30
2018,05,21,12,52,15.30
2018,05,21,12,53,15.30
2018,05,21,12,54,15.30
2018,05,21,12,55,15.30
2018,05,21,12,56,15.30
2018,05,21,12,57,15.40
2018,05,21,12,58,15.40
2018,05,21,12,59,15.40
2018,05,21,13,00,15.40
2018,05,21,13,01,15.40
2018,05,21,13,02,15.40
2018,05,21,13,03,15.40
2018,05,21,13,04,15.40
2018,05,21,13,05,15.50
2018,05,21,13,06,15.50
2018,05,21,13,07,15.50
2018,05,21,13,08,15.40
2018,05,21,13,09,15.40
2018,05,21,13,10,15.40
2018,05,21,13,11,15.50
2018,05,21,13,12,15.50
2018,05,21,13,13,15.60
2018,05,21,13,14,15.50
2018,05,21,13,15,15.50
2018,05,21,13,16,15.50
2018,05,21,13,17,15.60
2018,05,21,13,18,15.70
2018,05,21,13,19,15.80
2018,05,21,13,20,15.90
2018,05,21,13,21,15.90
2018,05,21,13,22,16.00
2018,05,21,13,23,16.00
2018,05,21,13,24,15.90
2018,05,21,13,25,15.90
2018,05,21,13,26,15.90
2018,05,21,13,27,15.90
2018,05,21,13,28,15.90
2018,05,21,13,29,15.80
2018,05,21,13,30,15.80
2018,05,21,13,31,15.80
2018,05,21,13,32,15.90
2018,05,21,13,33,15.90
2018,05,21,13,34,15.90
2018,05,21,13,35,15.90
2018,05,21,13,36,15.90
2018,05,21,13,37,15.90
2018,05,21,13,38,15.90
2018,05,21,13,39,16.00
2018,05,21,13,40,16.10
2018,05,21,13,41,16.10
2018,05,21,13,42,16.00
2018,05,21,13,43,16.00
2018,05,21,13,44,16.00
2018,05,21,13,45,15.90
2018,05,21,13,46,15.90
2018,05,21,13,47,15.90
2018,05,21,13,48,15.90
2018,05,21,13,49,15.90
2018,05,21,13,50,15.90
2018,05,21,13,51,15.90
2018,05,21,13,52,15.90
2018,05,21,13,53,15.90
2018,05,21,13,54,15.90
2018,05,21,13,55,15.80
2018,05,21,13,56,15.70
2018,05,21,13,57,15.60
2018,05,21,13,58,15.60
2018,05,21,13,59,15.50
2018,05,21,14,00,15.50
2018,05,21,14,01,15.50
2018,05,21,14,02,15.60
2018,05,21,14,03,15.70
2018,05,21,14,04,15.70
2018,05,21,14,05,15.70
2018,05,21,14,06,15.80
2018,05,21,14,07,15.90
2018,05,21,14,08,15.90
2018,05,21,14,09,15.90
2018,05,21,14,10,15.90
2018,05,21,14,11,15.90
2018,05,21,14,12,15.90
2018,05,21,14,13,15.80
2018,05,21,14,14,15.80
2018,05,21,14,15,15.80
2018,05,21,14,16,15.80
2018,05,21,14,17,15.90
2018,05,21,14,18,15.80
2018,05,21,14,19,15.80
2018,05,21,14,20,15.80
2018,05,21,14,21,15.90
2018,05,21,14,22,16.00
2018,05,21,14,23,15.90
2018,05,21,14,24,15.90
2018,05,21,14,25,15.90
2018,05,21,14,26,15.90
2018,05,21,14,27,15.90
2018,05,21,14,28,15.90
2018,05,21,14,29,15.90
2018,05,21,14,30,15.90
2018,05,21,14,31,15.90
2018,05,21,14,32,15.90
2018,05,21,14,33,15.90
2018,05,21,14,34,15.90
2018,05,21,14,35,15.90
2018,05,21,14,36,15.90
2018,05,21,14,37,16.00
2018,05,21,14,38,16.00
2018,05,21,14,39,16.10
2018,05,21,14,40,16.20
2018,05,21,14,41,16.30
2018,05,21,14,42,16.30
2018,05,21,14,43,16.20
2018,05,21,14,44,16.10
2018,05,21,14,45,16.10
2018,05,21,14,46,16.00
2018,05,21,14,47,16.00
2018,05,21,14,48,15.90
2018,05,21,14,49,15.80
2018,05,21,14,50,15.90
2018,05,21,14,51,16.00
2018,05,21,14,52,16.10
2018,05,21,14,53,16.10
2018,05,21,14,54,16.10
2018,05,21,14,55,16.00
2018,05,21,14,56,16.00
2018,05,21,14,57,16.00
2018,05,21,14,58,16.10
2018,05,21,14,59,16.20
2018,05,21,15,00,16.20
2018,05,21,15,01,16.30
2018,05,21,15,02,16.30
2018,05,21,15,03,16.40
2018,05,21,15,04,16.50
2018,05,21,15,05,16.50
2018,05,21,15,06,16.50
2018,05,21,15,07,16.40
2018,05,21,15,08,16.30
2018,05,21,15,09,16.30
2018,05,21,15,10,16.20
2018,05,21,15,11,16.20
2018,05,21,15,12,16.20
2018,05,21,15,13,16.20
2018,05,21,15,14,16.10
2018,05,21,15,15,15.90
2018,05,21,15,16,15.90
2018,05,21,15,17,15.80
2018,05,21,15,18,15.80
2018,05,21,15,19,15.80
2018,05,21,15,20,15.80
2018,05,21,15,21,15.80
2018,05,21,15,22,15.90
2018,05,21,15,23,15.90
2018,05,21,15,24,15.90
2018,05,21,15,25,16.00
2018,05,21,15,26,16.00
2018,05,21,15,27,16.00
2018,05,21,15,28,16.00
2018,05,21,15,29,16.00
2018,05,21,15,30,16.00
2018,05,21,15,31,16.10
2018,05,21,15,32,16.10
2018,05,21,15,33,16.00
2018,05,21,15,34,16.00
2018,05,21,15,35,16.00
2018,05,21,15,36,16.00
2018,05,21,15,37,16.20
2018,05,21,15,38,16.20
2018,05,21,15,39,16.30
2018,05,21,15,40,16.30
2018,05,21,15,41,16.30
2018,05,21,15,42,16.30
2018,05,21,15,43,16.30
2018,05,21,15,44,16.30
2018,05,21,15,45,16.40
2018,05,21,15,46,16.40
2018,05,21,15,47,16.50
2018,05,21,15,48,16.50
2018,05,21,15,49,16.50
2018,05,21,15,50,16.50
2018,05,21,15,51,16.50
2018,05,21,15,52,16.40
2018,05,21,15,53,16.40
2018,05,21,15,54,16.30
2018,05,21,15,55,16.30
2018,05,21,15,56,16.40
2018,05,21,15,57,16.30
2018,05,21,15,58,16.30
2018,05,21,15,59,16.20
2018,05,21,16,00,16.10
2018,05,21,16,01,16.00
2018,05,21,16,02,15.90
2018,05,21,16,03,15.90
2018,05,21,16,04,16.00
2018,05,21,16,05,16.00
2018,05,21,16,06,16.00
2018,05,21,16,07,16.00
2018,05,21,16,08,15.90
2018,05,21,16,09,16.00
2018,05,21,16,10,16.00
2018,05,21,16,11,16.10
2018,05,21,16,12,16.10
2018,05,21,16,13,16.20
2018,05,21,16,14,16.20
2018,05,21,16,15,16.30
2018,05,21,16,16,16.30
2018,05,21,16,17,16.30
2018,05,21,16,18,16.20
2018,05,21,16,19,16.10
2018,05,21,16,20,16.10
2018,05,21,16,21,16.10
2018,05,21,16,22,16.10
2018,05,21,16,23,16.00
2018,05,21,16,24,16.10
2018,05,21,16,25,16.10
2018,05,21,16,26,16.20
2018,05,21,16,27,16.20
2018,05,21,16,28,16.30
2018,05,21,16,29,16.30
2018,05,21,16,30,16.20
2018,05,21,16,31,16.20
2018,05,21,16,32,16.10
2018,05,21,16,33,16.10
2018,05,21,16,34,16.10
2018,05,21,16,35,16.10
2018,05,21,16,36,16.10
2018,05,21,16,37,16.10
2018,05,21,16,38,16.10
2018,05,21,16,39,16.10
2018,05,21,16,40,16.10
2018,05,21,16,41,16.10
2018,05,21,16,42,16.10
2018,05,21,16,43,16.10
2018,05,21,16,44,16.10
2018,05,21,16,45,16.20
2018,05,21,16,46,16.30
2018,05,21,16,47,16.40
2018,05,21,16,48,16.40
2018,05,21,16,49,16.50
2018,05,21,16,50,16.50
2018,05,21,16,51,16.60
2018,05,21,16,52,16.60
2018,05,21,16,53,16.70
2018,05,21,16,54,16.70
2018,05,21,16,55,16.80
2018,05,21,16,56,16.80
2018,05,21,16,57,16.90
2018,05,21,16,58,17.00
2018,05,21,16,59,17.00
2018,05,21,17,00,17.00
2018,05,21,17,01,17.00
2018,05,21,17,02,17.00
2018,05,21,17,03,17.00
2018,05,21,17,04,16.90
2018,05,21,17,05,16.80
2018,05,21,17,06,16.80
2018,05,21,17,07,16.70
2018,05,21,17,08,16.80
2018,05,21,17,09,16.80
2018,05,21,17,10,16.80
2018,05,21,17,11,16.80
2018,05,21,17,12,16.70
2018,05,21,17,13,16.70
2018,05,21,17,14,16.70
2018,05,21,17,15,16.70
2018,05,21,17,16,16.80
2018,05,21,17,17,16.80
2018,05,21,17,18,16.70
2018,05,21,17,19,16.70
2018,05,21,17,20,16.60
2018,05,21,17,21,16.60
2018,05,21,17,22,16.50
2018,05,21,17,23,16.50
2018,05,21,17,24,16.40
2018,05,21,17,25,16.40
2018,05,21,17,26,16.40
2018,05,21,17,27,16.40
2018,05,21,17,28,16.40
2018,05,21,17,29,16.50
2018,05,21,17,30,16.50
2018,05,21,17,31,16.50
2018,05,21,17,32,16.50
2018,05,21,17,33,16.50
2018,05,21,17,34,16.50
2018,05,21,17,35,16.40
2018,05,21,17,36,16.40
2018,05,21,17,37,16.40
2018,05,21,17,38,16.50
2018,05,21,17,39,16.50
2018,05,21,17,40,16.50
2018,05,21,17,41,16.50
2018,05,21,17,42,16.50
2018,05,21,17,43,16.50
2018,05,21,17,44,16.50
2018,05,21,17,45,16.60
2018,05,21,17,46,16.60
2018,05,21,17,47,16.60
2018,05,21,17,48,16.60
2018,05,21,17,49,16.60
2018,05,21,17,50,16.60
2018,05,21,17,51,16.60
2018,05,21,17,52,16.60
2018,05,21,17,53,16.60
2018,05,21,17,54,16.60
2018,05,21,17,55,16.60
2018,05,21,17,56,16.50
2018,05,21,17,57,16.50
2018,05,21,17,58,16.50
2018,05,21,17,59,16.50
2018,05,21,18,00,16.50
2018,05,21,18,01,16.50
2018,05,21,18,02,16.50
2018,05,21,18,03,16.50
2018,05,21,18,04,16.50
2018,05,21,18,05,16.50
2018,05,21,18,06,16.50
2018,05,21,18,07,16.50
2018,05,21,18,08,16.50
2018,05,21,18,09,16.40
2018,05,21,18,10,16.40
2018,05,21,18,11,16.40
2018,05,21,18,12,16.40
2018,05,21,18,13,16.50
2018,05,21,18,14,16.60
2018,05,21,18,15,16.60
2018,05,21,18,16,16.60
2018,05,21,18,17,16.60
2018,05,21,18,18,16.60
2018,05,21,18,19,16.60
2018,05,21,18,20,16.50
2018,05,21,18,21,16.50
2018,05,21,18,22,16.40
2018,05,21,18,23,16.30
2018,05,21,18,24,16.20
2018,05,21,18,25,16.10
2018,05,21,18,26,16.00
2018,05,21,18,27,16.00
2018,05,21,18,28,16.00
2018,05,21,18,29,15.90
2018,05,21,18,30,15.90
2018,05,21,18,31,15.90
2018,05,21,18,32,16.00
2018,05,21,18,33,16.00
2018,05,21,18,34,16.10
2018,05,21,18,35,16.10
2018,05,21,18,36,16.20
2018,05,21,18,37,16.20
2018,05,21,18,38,16.30
2018,05,21,18,39,16.30
2018,05,21,18,40,16.30
2018,05,21,18,41,16.30
2018,05,21,18,42,16.20
2018,05,21,18,43,16.20
2018,05,21,18,44,16.10
2018,05,21,18,45,16.10
2018,05,21,18,46,16.10
2018,05,21,18,47,16.10
2018,05,21,18,48,16.10
2018,05,21,18,49,16.00
2018,05,21,18,50,16.00
2018,05,21,18,51,15.90
2018,05,21,18,52,16.00
2018,05,21,18,53,16.00
2018,05,21,18,54,16.10
2018,05,21,18,55,16.10
2018,05,21,18,56,16.00
2018,05,21,18,57,16.00
2018,05,21,18,58,16.00
2018,05,21,18,59,16.00
2018,05,21,19,00,16.00
2018,05,21,19,01,16.00
2018,05,21,19,02,16.00
2018,05,21,19,03,16.00
2018,05,21,19,04,16.00
2018,05,21,19,05,16.00
2018,05,21,19,06,15.90
2018,05,21,19,07,15.80
2018,05,21,19,08,15.80
2018,05,21,19,09,15.70
2018,05,21,19,10,15.70
2018,05,21,19,11,15.60
2018,05,21,19,12,15.60
2018,05,21,19,13,15.50
2018,05,21,19,14,15.50
2018,05,21,19,15,15.50
2018,05,21,19,16,15.50
2018,05,21,19,17,15.50
2018,05,21,19,18,15.60
2018,05,21,19,19,15.60
2018,05,21,19,20,15.60
2018,05,21,19,21,15.60
2018,05,21,19,22,15.60
2018,05,21,19,23,15.70
2018,05,21,19,24,15.70
2018,05,21,19,25,15.80
2018,05,21,19,26,15.80
2018,05,21,19,27,15.80
2018,05,21,19,28,15.80
2018,05,21,19,29,15.80
2018,05,21,19,30,15.80
2018,05,21,19,31,15.80
2018,05,21,19,32,15.80
2018,05,21,19,33,15.90
2018,05,21,19,34,15.90
2018,05,21,19,35,15.90
2018,05,21,19,36,16.00
2018,05,21,19,37,16.00
2018,05,21,19,38,16.00
2018,05,21,19,39,16.10
2018,05,21,19,40,16.10
2018,05,21,19,41,16.10
2018,05,21,19,42,16.10
2018,05,21,19,43,16.10
2018,05,21,19,44,16.10
2018,05,21,19,45,16.20
2018,05,21,19,46,16.20
2018,05,21,19,47,16.20
2018,05,21,19,48,16.20
2018,05,21,19,49,16.20
2018,05,21,19,50,16.20
2018,05,21,19,51,16.20
2018,05,21,19,52,16.20
2018,05,21,19,53,16.20
2018,05,21,19,54,16.20
2018,05,21,19,55,16.20
2018,05,21,19,56,16.20
2018,05,21,19,57,16.10
2018,05,21,19,58,16.10
2018,05,21,19,59,16.10
2018,05,21,20,00,16.00
2018,05,21,20,01,15.90
2018,05,21,20,02,15.80
2018,05,21,20,03,15.80
2018,05,21,20,04,15.80
2018,05,21,20,05,15.70
2018,05,21,20,06,15.70
2018,05,21,20,07,15.70
2018,05,21,20,08,15.70
2018,05,21,20,09,15.60
2018,05,21,20,10,15.60
2018,05,21,20,11,15.60
2018,05,21,20,12,15.60
2018,05,21,20,13,15.50
2018,05,21,20,14,15.50
2018,05,21,20,15,15.50
2018,05,21,20,16,15.50
2018,05,21,20,17,15.40
2018,05,21,20,18,15.40
2018,05,21,20,19,15.40
2018,05,21,20,20,15.40
2018,05,21,20,21,15.40
2018,05,21,20,22,15.40
2018,05,21,20,23,15.30
2018,05,21,20,24,15.30
2018,05,21,20,25,15.30
2018,05,21,20,26,15.30
2018,05,21,20,27,15.30
2018,05,21,20,28,15.30
2018,05,21,20,29,15.30
2018,05,21,20,30,15.30
2018,05,21,20,31,15.30
2018,05,21,20,32,15.30
2018,05,21,20,33,15.30
2018,05,21,20,34,15.30
2018,05,21,20,35,15.30
2018,05,21,20,36,15.30
2018,05,21,20,37,15.20
2018,05,21,20,38,15.20
2018,05,21,20,39,15.20
2018,05,21,20,40,15.20
2018,05,21,20,41,15.20
2018,05,21,20,42,15.10
2018,05,21,20,43,15.10
2018,05,21,20,44,15.10
2018,05,21,20,45,15.10
2018,05,21,20,46,15.00
2018,05,21,20,47,15.00
2018,05,21,20,48,14.90
2018,05,21,20,49,14.90
2018,05,21,20,50,14.80
2018,05,21,20,51,14.80
2018,05,21,20,52,14.80
2018,05,21,20,53,14.80
2018,05,21,20,54,14.80
2018,05,21,20,55,14.80
2018,05,21,20,56,14.70
2018,05,21,20,57,14.70
2018,05,21,20,58,14.70
2018,05,21,20,59,14.70
2018,05,21,21,00,14.70
2018,05,21,21,01,14.70
2018,05,21,21,02,14.70
2018,05,21,21,03,14.60
2018,05,21,21,04,14.60
2018,05,21,21,05,14.60
2018,05,21,21,06,14.60
2018,05,21,21,07,14.60
2018,05,21,21,08,14.60
2018,05,21,21,09,14.60
2018,05,21,21,10,14.60
2018,05,21,21,11,14.60
2018,05,21,21,12,14.60
2018,05,21,21,13,14.60
2018,05,21,21,14,14.50
2018,05,21,21,15,14.50
2018,05,21,21,16,14.50
2018,05,21,21,17,14.50
2018,05,21,21,18,14.50
2018,05,21,21,19,14.50
2018,05,21,21,20,14.40
2018,05,21,21,21,14.40
2018,05,21,21,22,14.40
2018,05,21,21,23,14.40
2018,05,21,21,24,14.40
2018,05,21,21,25,14.30
2018,05,21,21,26,14.30
2018,05,21,21,27,14.30
2018,05,21,21,28,14.30
2018,05,21,21,29,14.30
2018,05,21,21,30,14.30
2018,05,21,21,31,14.20
2018,05,21,21,32,14.20
2018,05,21,21,33,14.20
2018,05,21,21,34,14.20
2018,05,21,21,35,14.20
2018,05,21,21,36,14.20
2018,05,21,21,37,14.20
2018,05,21,21,38,14.10
2018,05,21,21,39,14.10
2018,05,21,21,40,14.10
2018,05,21,21,41,14.10
2018,05,21,21,42,14.10
2018,05,21,21,43,14.00
2018,05,21,21,44,14.00
2018,05,21,21,45,14.00
2018,05,21,21,46,14.00
2018,05,21,21,47,14.00
2018,05,21,21,48,14.00
2018,05,21,21,49,13.90
2018,05,21,21,50,13.90
2018,05,21,21,51,13.90
2018,05,21,21,52,13.90
2018,05,21,21,53,13.90
2018,05,21,21,54,13.90
2018,05,21,21,55,13.90
2018,05,21,21,56,13.80
2018,05,21,21,57,13.80
2018,05,21,21,58,13.80
2018,05,21,21,59,13.80
2018,05,21,22,00,13.80
2018,05,21,22,01,13.80
2018,05,21,22,02,13.80
2018,05,21,22,03,13.80
2018,05,21,22,04,13.80
2018,05,21,22,05,13.70
2018,05,21,22,06,13.70
2018,05,21,22,07,13.70
2018,05,21,22,08,13.70
2018,05,21,22,09,13.70
2018,05,21,22,10,13.70
2018,05,21,22,11,13.70
2018,05,21,22,12,13.60
2018,05,21,22,13,13.60
2018,05,21,22,14,13.60
2018,05,21,22,15,13.60
2018,05,21,22,16,13.60
2018,05,21,22,17,13.50
2018,05,21,22,18,13.50
2018,05,21,22,19,13.50
2018,05,21,22,20,13.50
2018,05,21,22,21,13.50
2018,05,21,22,22,13.40
2018,05,21,22,23,13.40
2018,05,21,22,24,13.40
2018,05,21,22,25,13.40
2018,05,21,22,26,13.40
2018,05,21,22,27,13.40
2018,05,21,22,28,13.30
2018,05,21,22,29,13.30
2018,05,21,22,30,13.30
2018,05,21,22,31,13.30
2018,05,21,22,32,13.30
2018,05,21,22,33,13.30
2018,05,21,22,34,13.30
2018,05,21,22,35,13.30
2018,05,21,22,36,13.30
2018,05,21,22,37,13.30
2018,05,21,22,38,13.30
